Regional Weather Roundup
Issued by NWS

Home | Current Version | Previous Version | Graphics & Text | Print | Product List | Glossary On
Versions: 1 2 3 4 5 6 7 8 9 10 11 12 13 14 15 16 17 18 19 20 21 22 23 24 25 26 27 28 29 30 31 32 33 34 35 36 37 38 39 40 41 42 43 44 45 46 47 48 49 50
000
ASUS43 KBIS 311001
RWRND

NORTH DAKOTA REGIONAL WEATHER ROUNDUP
NATIONAL WEATHER SERVICE BISMARCK ND
400 AM CST SAT JAN 31 2015

NOTE: "FAIR" INDICATES FEW OR NO CLOUDS BELOW 12,000 FEET WITH NO
SIGNIFICANT WEATHER AND/OR OBSTRUCTIONS TO VISIBILITY.


NDZ001>003-009>011-017-311100-
NORTHWEST NORTH DAKOTA

CITY           SKY/WX    TMP DP  RH WIND       PRES   REMARKS
WILLISTON      CLOUDY    24  20  84 E13       30.20S WCI  12
MINOT          CLOUDY    18  13  80 N13       30.25R WCI   5
MINOT AFB      DRIZZLE   17  16  98 NE16      30.26R WCI   1
$$

NDZ018>021-031>035-040>046-311100-
SOUTHWEST NORTH DAKOTA

CITY           SKY/WX    TMP DP  RH WIND       PRES   REMARKS
BISMARCK       CLOUDY    23  22  96 NE7       30.24R WCI  15
DICKINSON      FOG       23  21  92 NE14      30.11F VSB 1/4 WCI  11
GARRISON         N/A     20  16  84 NE7       30.23R WCI  11
HETTINGER ARPT CLOUDY    25  23  92 E12       30.10F FOG     WCI  14
$$

NDZ004>008-012>016-024-026-027-054-311100-
NORTHEAST NORTH DAKOTA

CITY           SKY/WX    TMP DP  RH WIND       PRES   REMARKS
GRAND FORKS    CLOUDY    10   1  67 N24G35    30.31R WCI -10
GRND FRKS AFB  DRIZZLE   11   4  75 N26       30.31R WCI -10
DEVILS LAKE    MOCLDY    10   3  72 NE20      30.26R WCI  -8
$$

NDZ022-023-025-028>030-036>039-047>053-311100-
SOUTHEAST NORTH DAKOTA

CITY           SKY/WX    TMP DP  RH WIND       PRES   REMARKS
FARGO          CLOUDY    18  12  77 N15       30.25R WCI   4
JAMESTOWN      CLOUDY    21  16  81 NE13      30.22R WCI   9
$$




USA.gov is the U.S. government's official web portal to all federal, state and local government web resources and services.